Location: Baia Mare
(47.6567°N, 23.5850°E)
Time: 02:31:11

ISS - Pass Details

Date: 11 March 2018
Orbit: 403 x 406 km, 51.6° (Epoch: 22 March)

Event Time Altitude Azimuth Distance (km) Brightness Sun altitude
Exits shadow 05:44:39 14° 299° (WNW) 1,258 -1.8 -11.4°
Maximum altitude 05:47:17 44° 10° (N) 575 -3.0 -10.9°
Drops below altitude 10° 05:50:26 10° 84° (E) 1,464 0.6 -10.4°
Sets 05:52:35 0° 91° (E) 2,322 2.2 -10.0°
